When you browse on this site, cookies collect data to enhance your experience and personalize the content and advertising you see.
Visit our Privacy Policy to learn more. By continuing to use the site, you agree to this use of cookies and data.
  • En España
  • Lista de países
  • Para 7 días
  • Temperatura del agua
  • El tiempo en el mapa
  • Informadores
  • user-avatar
    Iniciar sesión

    Tiempo cada hora Madrid

    Hoy, 28 Mayo, Jueves

    Tiempo Temperatura Precipitaciones Viento Presión Humedad
    00:00 +19°C° 0 mm 2 mps 712 mmHg 54%
    01:00 +18°C° 0 mm 2 mps 712 mmHg 54%
    02:00 +18°C° 0 mm 2 mps 712 mmHg 55%
    03:00 +17°C° 0 mm 3 mps 712 mmHg 55%
    04:00 +17°C° 0 mm 3 mps 712 mmHg 55%
    05:00 +17°C° 0 mm 3 mps 712 mmHg 55%
    06:00 +17°C° 0 mm 2 mps 712 mmHg 55%
    07:00 +19°C° 0 mm 3 mps 712 mmHg 50%
    08:00 +20°C° 0 mm 3 mps 712 mmHg 44%
    09:00 +22°C° 0 mm 3 mps 712 mmHg 39%
    10:00 +24°C° 0 mm 3 mps 712 mmHg 35%
    11:00 +25°C° 0 mm 4 mps 711 mmHg 32%
    12:00 +27°C° 0 mm 4 mps 711 mmHg 28%
    13:00 +28°C° 0 mm 4 mps 711 mmHg 27%
    14:00 +28°C° 0 mm 4 mps 710 mmHg 27%
    15:00 +29°C° 0 mm 4 mps 710 mmHg 26%
    16:00 +28°C° 0 mm 4 mps 710 mmHg 29%
    17:00 +28°C° 0 mm 4 mps 709 mmHg 32%
    18:00 +27°C° 0 mm 4 mps 709 mmHg 34%
    19:00 +26°C° 0 mm 4 mps 709 mmHg 39%
    20:00 +24°C° 0 mm 3 mps 709 mmHg 44%
    21:00 +22°C° 0 mm 3 mps 710 mmHg 49%
    22:00 +21°C° 0 mm 2 mps 709 mmHg 51%
    23:00 +20°C° 0 mm 2 mps 709 mmHg 53%

    Mañana, 29 Mayo, Viernes

    Tiempo Temperatura Precipitaciones Viento Presión Humedad
    00:00 +19°C° 0 mm 2 mps 709 mmHg 55%
    01:00 +19°C° 0 mm 2 mps 709 mmHg 55%
    02:00 +18°C° 0 mm 2 mps 709 mmHg 55%
    03:00 +17°C° 0 mm 2 mps 708 mmHg 56%
    04:00 +18°C° 0 mm 2 mps 708 mmHg 55%
    05:00 +18°C° 0 mm 2 mps 708 mmHg 55%
    06:00 +18°C° 0 mm 2 mps 708 mmHg 54%
    07:00 +20°C° 0 mm 2 mps 708 mmHg 47%
    08:00 +22°C° 0 mm 1 mps 708 mmHg 41%
    09:00 +24°C° 0 mm 1 mps 708 mmHg 34%
    10:00 +26°C° 0 mm 1 mps 708 mmHg 31%
    11:00 +27°C° 0 mm 1 mps 707 mmHg 28%
    12:00 +28°C° 0 mm 1 mps 707 mmHg 25%
    13:00 +29°C° 0 mm 1 mps 707 mmHg 24%
    14:00 +30°C° 0 mm 1 mps 706 mmHg 23%
    15:00 +30°C° 0 mm 1 mps 706 mmHg 22%
    16:00 +30°C° 0 mm 1 mps 706 mmHg 24%
    17:00 +30°C° 0 mm 1 mps 705 mmHg 25%
    18:00 +30°C° 0 mm 1 mps 705 mmHg 27%
    19:00 +28°C° 0 mm 1 mps 705 mmHg 29%
    20:00 +27°C° 0 mm 2 mps 705 mmHg 32%
    21:00 +25°C° 0 mm 2 mps 706 mmHg 34%
    22:00 +25°C° 0 mm 2 mps 705 mmHg 37%
    23:00 +24°C° 0 mm 2 mps 705 mmHg 40%

    Pasado mañana, 30 Mayo, Sábado

    Tiempo Temperatura Precipitaciones Viento Presión Humedad
    00:00 +23°C° 0 mm 2 mps 705 mmHg 42%
    01:00 +21°C° 0 mm 2 mps 705 mmHg 44%
    02:00 +21°C° 0 mm 3 mps 705 mmHg 46%
    03:00 +20°C° 0 mm 3 mps 705 mmHg 47%
    04:00 +20°C° 0 mm 3 mps 705 mmHg 48%
    05:00 +20°C° 0 mm 3 mps 705 mmHg 49%
    06:00 +19°C° 0 mm 3 mps 705 mmHg 50%
    07:00 +21°C° 0 mm 2 mps 706 mmHg 45%
    08:00 +24°C° 0 mm 2 mps 706 mmHg 41%
    09:00 +25°C° 0 mm 2 mps 706 mmHg 36%
    10:00 +27°C° 0 mm 2 mps 706 mmHg 33%
    11:00 +28°C° 0 mm 1 mps 706 mmHg 30%
    12:00 +30°C° 0 mm 1 mps 706 mmHg 27%
    13:00 +30°C° 0 mm 1 mps 705 mmHg 26%
    14:00 +31°C° 0 mm 1 mps 705 mmHg 24%
    15:00 +32°C° 0 mm 2 mps 704 mmHg 22%
    16:00 +31°C° 0 mm 2 mps 704 mmHg 22%
    17:00 +31°C° 0 mm 1 mps 704 mmHg 23%
    18:00 +31°C° 0 mm 1 mps 704 mmHg 23%
    19:00 +29°C° 0 mm 1 mps 704 mmHg 26%
    20:00 +28°C° 0 mm 1 mps 704 mmHg 29%
    21:00 +26°C° 0 mm 1 mps 704 mmHg 32%
    22:00 +25°C° 0 mm 1 mps 704 mmHg 35%
    23:00 +24°C° 0 mm 2 mps 704 mmHg 38%

    31 Mayo, Domingo

    Tiempo Temperatura Precipitaciones Viento Presión Humedad
    00:00 +23°C° 0 mm 2 mps 704 mmHg 41%
    01:00 +21°C° 0 mm 2 mps 704 mmHg 43%
    02:00 +21°C° 0 mm 3 mps 704 mmHg 44%
    03:00 +20°C° 0 mm 3 mps 704 mmHg 46%
    04:00 +20°C° 0 mm 3 mps 704 mmHg 46%
    05:00 +20°C° 0 mm 3 mps 704 mmHg 47%
    06:00 +20°C° 0 mm 3 mps 704 mmHg 48%
    07:00 +22°C° 0 mm 3 mps 704 mmHg 44%
    08:00 +24°C° 0 mm 3 mps 704 mmHg 40%
    09:00 +26°C° 0 mm 3 mps 705 mmHg 36%
    10:00 +27°C° 0 mm 3 mps 705 mmHg 33%
    11:00 +29°C° 0 mm 3 mps 705 mmHg 30%
    12:00 +30°C° 0 mm 2 mps 705 mmHg 26%
    13:00 +31°C° 0 mm 3 mps 705 mmHg 25%
    14:00 +31°C° 0 mm 3 mps 704 mmHg 23%
    15:00 +33°C° 0 mm 4 mps 704 mmHg 22%
    16:00 +33°C° 0 mm 3 mps 704 mmHg 23%
    17:00 +31°C° 0 mm 3 mps 704 mmHg 24%
    18:00 +31°C° 0 mm 3 mps 704 mmHg 25%
    19:00 +29°C° 0.1 mm 3 mps 704 mmHg 29%
    20:00 +27°C° 0.1 mm 2 mps 704 mmHg 33%
    21:00 +26°C° 0.1 mm 2 mps 704 mmHg 38%
    22:00 +25°C° 0.6 mm 2 mps 705 mmHg 42%
    23:00 +24°C° 0.6 mm 2 mps 705 mmHg 47%

    1 Junio, Lunes

    Tiempo Temperatura Precipitaciones Viento Presión Humedad
    00:00 +23°C° 0.6 mm 1 mps 705 mmHg 51%
    01:00 +21°C° 0.3 mm 2 mps 705 mmHg 54%
    02:00 +21°C° 0.3 mm 2 mps 705 mmHg 57%
    03:00 +20°C° 0.3 mm 2 mps 704 mmHg 59%
    04:00 +20°C° 0 mm 2 mps 704 mmHg 60%
    05:00 +20°C° 0 mm 2 mps 704 mmHg 61%
    06:00 +20°C° 0 mm 2 mps 704 mmHg 61%
    07:00 +23°C° 0 mm 2 mps 705 mmHg 56%
    08:00 +24°C° 0 mm 2 mps 705 mmHg 51%
    09:00 +26°C° 0 mm 2 mps 705 mmHg 45%
    10:00 +27°C° 0 mm 3 mps 705 mmHg 41%
    11:00 +29°C° 0 mm 3 mps 705 mmHg 36%
    12:00 +30°C° 0 mm 4 mps 705 mmHg 31%
    13:00 +30°C° 0 mm 4 mps 705 mmHg 29%
    14:00 +32°C° 0 mm 4 mps 705 mmHg 27%
    15:00 +32°C° 0 mm 4 mps 704 mmHg 24%
    16:00 +32°C° 0 mm 4 mps 704 mmHg 26%
    17:00 +32°C° 0 mm 4 mps 704 mmHg 28%
    18:00 +30°C° 0 mm 4 mps 704 mmHg 29%
    19:00 +29°C° 0.1 mm 4 mps 704 mmHg 34%
    20:00 +27°C° 0.1 mm 3 mps 704 mmHg 38%
    21:00 +26°C° 0.1 mm 3 mps 705 mmHg 43%
    22:00 +25°C° 0 mm 3 mps 705 mmHg 47%
    23:00 +24°C° 0 mm 2 mps 704 mmHg 51%

    2 Junio, Martes

    Tiempo Temperatura Precipitaciones Viento Presión Humedad
    00:00 +23°C° 0 mm 2 mps 704 mmHg 55%
    01:00 +23°C° 0 mm 2 mps 704 mmHg 57%
    02:00 +21°C° 0 mm 2 mps 704 mmHg 59%
    03:00 +21°C° 0 mm 2 mps 704 mmHg 61%
    04:00 +22°C° 0 mm 1 mps 704 mmHg 61%
    05:00 +22°C° 0 mm 1 mps 704 mmHg 61%
    06:00 +22°C° 0 mm 1 mps 704 mmHg 61%
    07:00 +24°C° 0 mm 1 mps 704 mmHg 55%
    08:00 +25°C° 0 mm 1 mps 704 mmHg 50%
    09:00 +27°C° 0 mm 1 mps 704 mmHg 45%
    10:00 +28°C° 0 mm 1 mps 704 mmHg 41%
    11:00 +29°C° 0 mm 2 mps 704 mmHg 37%
    12:00 +30°C° 0 mm 3 mps 704 mmHg 32%
    13:00 +29°C° 0.3 mm 4 mps 703 mmHg 36%
    14:00 +29°C° 0.3 mm 5 mps 702 mmHg 40%
    15:00 +28°C° 0.3 mm 6 mps 701 mmHg 43%
    16:00 +27°C° 0.4 mm 5 mps 701 mmHg 45%
    17:00 +26°C° 0.4 mm 4 mps 701 mmHg 46%
    18:00 +26°C° 0.4 mm 3 mps 701 mmHg 47%
    19:00 +24°C° 0.5 mm 3 mps 701 mmHg 53%
    20:00 +22°C° 0.5 mm 4 mps 701 mmHg 58%
    21:00 +21°C° 0.5 mm 4 mps 702 mmHg 64%
    22:00 +20°C° 0.2 mm 4 mps 701 mmHg 66%
    23:00 +20°C° 0.2 mm 3 mps 701 mmHg 67%
    Mostrar más